• In Netherlands
  • List of Countries
  • For 7 days
  • Water Temperature
  • Satellite Maps
  • Weather Map
  • Weather Widgets
  • user-avatar
    Login

    Hourly Weather Jewłach

    Today, 25 February, Saturday

    Time Temperature Precipitation Wind Pressure Humidity
    00:00 +8°C° 0 mm 2 mps 766 mmHg 58%
    01:00 +8°C° 0 mm 2 mps 766 mmHg 60%
    02:00 +7°C° 0 mm 2 mps 766 mmHg 62%
    03:00 +8°C° 0 mm 1 mps 766 mmHg 64%
    04:00 +7°C° 0 mm 2 mps 766 mmHg 63%
    05:00 +7°C° 0 mm 2 mps 766 mmHg 63%
    06:00 +6°C° 0 mm 2 mps 766 mmHg 62%
    07:00 +8°C° 0 mm 2 mps 766 mmHg 58%
    08:00 +10°C° 0 mm 3 mps 766 mmHg 54%
    09:00 +12°C° 0 mm 3 mps 765 mmHg 49%
    10:00 +14°C° 0 mm 3 mps 765 mmHg 45%
    11:00 +15°C° 0 mm 4 mps 764 mmHg 41%
    12:00 +18°C° 0 mm 4 mps 764 mmHg 37%
    13:00 +18°C° 0 mm 4 mps 763 mmHg 36%
    14:00 +19°C° 0 mm 4 mps 763 mmHg 35%
    15:00 +19°C° 0 mm 4 mps 762 mmHg 34%
    16:00 +17°C° 0 mm 3 mps 762 mmHg 38%
    17:00 +14°C° 0 mm 3 mps 763 mmHg 42%
    18:00 +12°C° 0 mm 3 mps 763 mmHg 47%
    19:00 +11°C° 0 mm 3 mps 763 mmHg 47%
    20:00 +11°C° 0 mm 3 mps 763 mmHg 48%
    21:00 +10°C° 0 mm 3 mps 763 mmHg 48%
    22:00 +10°C° 0 mm 3 mps 763 mmHg 48%
    23:00 +10°C° 0 mm 3 mps 762 mmHg 49%

    Tomorrow, 26 February, Sunday

    Time Temperature Precipitation Wind Pressure Humidity
    00:00 +9°C° 0 mm 3 mps 762 mmHg 49%
    01:00 +8°C° 0 mm 4 mps 762 mmHg 48%
    02:00 +8°C° 0 mm 4 mps 762 mmHg 47%
    03:00 +8°C° 0 mm 4 mps 761 mmHg 46%
    04:00 +8°C° 0 mm 5 mps 761 mmHg 46%
    05:00 +8°C° 0 mm 5 mps 761 mmHg 46%
    06:00 +8°C° 0 mm 5 mps 761 mmHg 46%
    07:00 +9°C° 0 mm 6 mps 761 mmHg 43%
    08:00 +11°C° 0 mm 7 mps 761 mmHg 41%
    09:00 +14°C° 0 mm 7 mps 761 mmHg 38%
    10:00 +15°C° 0 mm 7 mps 761 mmHg 36%
    11:00 +16°C° 0 mm 8 mps 761 mmHg 34%
    12:00 +17°C° 0 mm 8 mps 761 mmHg 32%
    13:00 +17°C° 0 mm 7 mps 761 mmHg 33%
    14:00 +18°C° 0 mm 7 mps 761 mmHg 33%
    15:00 +19°C° 0 mm 6 mps 761 mmHg 34%
    16:00 +16°C° 0 mm 5 mps 762 mmHg 38%
    17:00 +14°C° 0 mm 4 mps 763 mmHg 42%
    18:00 +12°C° 0 mm 3 mps 764 mmHg 46%
    19:00 +11°C° 0 mm 4 mps 765 mmHg 51%
    20:00 +10°C° 0 mm 4 mps 766 mmHg 55%
    21:00 +8°C° 0 mm 5 mps 767 mmHg 60%
    22:00 +7°C° 0.1 mm 5 mps 768 mmHg 64%
    23:00 +6°C° 0.1 mm 5 mps 768 mmHg 68%

    Day after tomorrow, 27 February, Monday

    Time Temperature Precipitation Wind Pressure Humidity
    00:00 +5°C° 0.1 mm 5 mps 768 mmHg 71%
    01:00 +5°C° 0 mm 4 mps 769 mmHg 71%
    02:00 +5°C° 0 mm 4 mps 769 mmHg 72%
    03:00 +4°C° 0 mm 3 mps 769 mmHg 72%
    04:00 +4°C° 0 mm 3 mps 769 mmHg 72%
    05:00 +5°C° 0 mm 2 mps 769 mmHg 72%
    06:00 +4°C° 0 mm 2 mps 769 mmHg 73%
    07:00 +5°C° 0 mm 2 mps 769 mmHg 69%
    08:00 +6°C° 0 mm 2 mps 769 mmHg 66%
    09:00 +6°C° 0 mm 2 mps 769 mmHg 63%
    10:00 +7°C° 0 mm 2 mps 768 mmHg 60%
    11:00 +8°C° 0 mm 2 mps 768 mmHg 57%
    12:00 +9°C° 0 mm 2 mps 767 mmHg 54%
    13:00 +10°C° 0 mm 2 mps 766 mmHg 53%
    14:00 +10°C° 0 mm 2 mps 766 mmHg 52%
    15:00 +11°C° 0 mm 1 mps 765 mmHg 51%
    16:00 +10°C° 0 mm 1 mps 765 mmHg 56%
    17:00 +9°C° 0 mm 1 mps 765 mmHg 61%
    18:00 +8°C° 0 mm 1 mps 765 mmHg 66%
    19:00 +7°C° 0 mm 1 mps 765 mmHg 69%
    20:00 +7°C° 0 mm 1 mps 766 mmHg 71%
    21:00 +6°C° 0 mm 1 mps 766 mmHg 74%
    22:00 +6°C° 0 mm 1 mps 766 mmHg 76%
    23:00 +6°C° 0 mm 1 mps 766 mmHg 79%

    28 February, Tuesday

    Time Temperature Precipitation Wind Pressure Humidity
    00:00 +4°C° 0 mm 0 mps 766 mmHg 81%
    01:00 +4°C° 0 mm 0 mps 766 mmHg 83%
    02:00 +4°C° 0 mm 0 mps 765 mmHg 84%
    03:00 +3°C° 0 mm 0 mps 765 mmHg 85%
    04:00 +3°C° 0 mm 0 mps 766 mmHg 86%
    05:00 +3°C° 0 mm 0 mps 766 mmHg 87%
    06:00 +3°C° 0 mm 0 mps 766 mmHg 87%
    07:00 +5°C° 0 mm 0 mps 766 mmHg 78%
    08:00 +8°C° 0 mm 1 mps 767 mmHg 69%
    09:00 +10°C° 0 mm 1 mps 767 mmHg 60%
    10:00 +12°C° 0 mm 1 mps 767 mmHg 56%
    11:00 +13°C° 0 mm 1 mps 766 mmHg 51%
    12:00 +15°C° 0 mm 1 mps 766 mmHg 47%
    13:00 +15°C° 0 mm 1 mps 766 mmHg 45%
    14:00 +16°C° 0 mm 1 mps 765 mmHg 44%
    15:00 +16°C° 0 mm 1 mps 765 mmHg 43%
    16:00 +14°C° 0 mm 2 mps 765 mmHg 49%
    17:00 +13°C° 0 mm 2 mps 766 mmHg 55%
    18:00 +10°C° 0 mm 2 mps 766 mmHg 61%
    19:00 +9°C° 0 mm 2 mps 766 mmHg 63%
    20:00 +9°C° 0 mm 2 mps 767 mmHg 65%
    21:00 +8°C° 0 mm 2 mps 767 mmHg 67%
    22:00 +8°C° 0 mm 2 mps 767 mmHg 70%
    23:00 +7°C° 0 mm 2 mps 767 mmHg 73%

    1 March, Wednesday

    Time Temperature Precipitation Wind Pressure Humidity
    00:00 +7°C° 0 mm 2 mps 767 mmHg 76%
    01:00 +7°C° 0 mm 1 mps 767 mmHg 80%
    02:00 +7°C° 0 mm 1 mps 767 mmHg 83%
    03:00 +6°C° 0 mm 1 mps 767 mmHg 87%
    04:00 +5°C° 0 mm 0 mps 767 mmHg 88%
    05:00 +4°C° 0 mm 0 mps 767 mmHg 89%
    06:00 +4°C° 0 mm 0 mps 767 mmHg 90%
    07:00 +6°C° 0 mm 0 mps 767 mmHg 81%
    08:00 +8°C° 0 mm 0 mps 767 mmHg 73%
    09:00 +10°C° 0 mm 0 mps 767 mmHg 64%
    10:00 +12°C° 0 mm 0 mps 766 mmHg 59%
    11:00 +14°C° 0 mm 1 mps 765 mmHg 54%
    12:00 +16°C° 0 mm 1 mps 764 mmHg 49%
    13:00 +16°C° 0 mm 1 mps 764 mmHg 47%
    14:00 +16°C° 0 mm 1 mps 763 mmHg 45%
    15:00 +18°C° 0 mm 1 mps 763 mmHg 43%
    16:00 +15°C° 0 mm 1 mps 763 mmHg 50%
    17:00 +14°C° 0 mm 1 mps 763 mmHg 56%
    18:00 +12°C° 0 mm 1 mps 763 mmHg 63%
    19:00 +11°C° 0 mm 1 mps 763 mmHg 64%
    20:00 +11°C° 0 mm 1 mps 763 mmHg 66%
    21:00 +9°C° 0 mm 2 mps 764 mmHg 67%
    22:00 +9°C° 0 mm 2 mps 763 mmHg 69%
    23:00 +8°C° 0 mm 2 mps 763 mmHg 70%

    2 March, Thursday

    Time Temperature Precipitation Wind Pressure Humidity
    00:00 +9°C° 0 mm 1 mps 763 mmHg 72%
    01:00 +8°C° 0 mm 1 mps 762 mmHg 75%
    02:00 +8°C° 0 mm 1 mps 762 mmHg 78%
    03:00 +7°C° 0 mm 1 mps 762 mmHg 81%
    04:00 +6°C° 0 mm 0 mps 762 mmHg 83%
    05:00 +5°C° 0 mm 0 mps 762 mmHg 84%
    06:00 +5°C° 0 mm 0 mps 762 mmHg 86%
    07:00 +7°C° 0 mm 0 mps 761 mmHg 77%
    08:00 +9°C° 0 mm 0 mps 761 mmHg 68%
    09:00 +12°C° 0 mm 0 mps 761 mmHg 59%
    10:00 +14°C° 0 mm 1 mps 760 mmHg 54%
    11:00 +15°C° 0 mm 1 mps 759 mmHg 49%
    12:00 +18°C° 0 mm 1 mps 758 mmHg 43%
    13:00 +18°C° 0 mm 1 mps 758 mmHg 41%
    14:00 +19°C° 0 mm 1 mps 757 mmHg 40%
    15:00 +19°C° 0 mm 1 mps 757 mmHg 38%
    16:00 +16°C° 0 mm 1 mps 757 mmHg 43%
    17:00 +15°C° 0 mm 1 mps 757 mmHg 49%
    18:00 +13°C° 0 mm 1 mps 758 mmHg 55%
    19:00 +13°C° 0 mm 1 mps 758 mmHg 56%
    20:00 +13°C° 0 mm 1 mps 758 mmHg 57%
    21:00 +12°C° 0 mm 1 mps 758 mmHg 58%
    22:00 +12°C° 0 mm 1 mps 758 mmHg 59%
    23:00 +12°C° 0 mm 1 mps 758 mmHg 60%
    Show more